Location: Aufkirchen
(47.9603°N, 11.3653°E)
Time: 23:07:35
(UTC+02:00)

Altair - Pass Details

Date: 03 August 2021
Orbit: 1501 x 1682 km, 47.2° (Epoch: 22 September)

Event Time Altitude Azimuth Distance (km) Brightness Sun altitude
Exits shadow 05:09:58 - 267° (W) 4,699 9.5 -7.0°
Reaches altitude 10° 05:13:01 10° 267° (W) 3,707 9.0 -6.6°
Maximum altitude 05:22:21 87° 180° (S) 1,514 7.5 -5.3°
Drops below altitude 10° 05:31:33 10° 93° (E) 3,653 10.5 -4.0°
Sets 05:34:33 0° 93° (E) 4,638 11.1 -3.6°
